English version
lugares datos climáticos artículos

datos de Mairena del Aljarafe, Sevilla, España
Año Mes Dia Mostrar

  Fecha       hora        Temp.ext.    Hum.ext.  Dir.Viento   Vel.Viento  Presion al NM   T.int. Prec.hoy 

   26-09-2020    08:10        - º(----)      -%         -          -  km/h    1020.1 hpa     26.4º    0.0 mm
   26-09-2020    08:05      17.1º(----)     50%         -          -  km/h    1020.2 hpa     26.2º    0.0 mm
   26-09-2020    08:00      17.1º(----)     50%      022 (N)      8.0 km/h    1020.2 hpa     25.9º    0.0 mm
   26-09-2020    07:55      17.2º(-1.2)     50%      000 (N)      6.4 km/h    1020.2 hpa     26.0º    0.0 mm
   26-09-2020    07:50      17.3º(-1.1)     50%      000 (N)      9.7 km/h    1020.1 hpa     26.0º    0.0 mm
   26-09-2020    07:45      17.3º(-1.3)     50%      022 (N)      9.7 km/h    1020.1 hpa     26.0º    0.0 mm
   26-09-2020    07:40      17.4º(-1.3)     49%      022 (N)      6.4 km/h    1020.0 hpa     26.0º    0.0 mm
   26-09-2020    07:35      17.4º(-1.4)     49%      022 (N)      4.8 km/h    1020.1 hpa     26.0º    0.0 mm
   26-09-2020    07:30      17.6º(-1.3)     49%      000 (N)      8.0 km/h    1020.3 hpa     26.0º    0.0 mm
   26-09-2020    07:25      17.6º(-1.4)     49%      000 (N)      9.7 km/h    1020.2 hpa     26.1º    0.0 mm
   26-09-2020    07:20      17.6º(-1.5)     49%      000 (N)      9.7 km/h    1020.2 hpa     26.1º    0.0 mm
   26-09-2020    07:15      17.6º(-1.6)     49%      000 (N)      8.0 km/h    1020.1 hpa     26.1º    0.0 mm
   26-09-2020    07:10      17.6º(-1.7)     49%      000 (N)      8.0 km/h    1020.2 hpa     26.1º    0.0 mm
   26-09-2020    07:05      17.7º(-1.8)     49%      000 (N)      6.4 km/h    1020.1 hpa     26.2º    0.0 mm
   26-09-2020    07:00      17.7º(-1.9)     48%      000 (N)      6.4 km/h    1020.0 hpa     26.2º    0.0 mm
   26-09-2020    06:55      17.7º(-2.0)     49%      000 (N)      8.0 km/h    1020.1 hpa     26.2º    0.0 mm
   26-09-2020    06:50      17.7º(-2.1)     48%      000 (N)      8.0 km/h    1020.2 hpa     26.2º    0.0 mm
   26-09-2020    06:45      17.7º(-2.2)     49%      000 (N)      6.4 km/h    1020.3 hpa     26.2º    0.0 mm
   26-09-2020    06:40      17.8º(-2.2)     48%      000 (N)      6.4 km/h    1020.3 hpa     26.2º    0.0 mm
   26-09-2020    06:35      17.8º(-2.3)     48%      000 (N)      6.4 km/h    1020.5 hpa     26.2º    0.0 mm
   26-09-2020    06:30      17.9º(-2.3)     48%      000 (N)      6.4 km/h    1020.5 hpa     26.2º    0.0 mm
   26-09-2020    06:25      17.9º(-2.3)     48%      000 (N)      8.0 km/h    1020.6 hpa     26.2º    0.0 mm
   26-09-2020    06:20      17.9º(-2.3)     48%      000 (N)      6.4 km/h    1020.6 hpa     26.2º    0.0 mm
   26-09-2020    06:15      17.9º(-2.3)     48%      022 (N)      6.4 km/h    1020.6 hpa     26.2º    0.0 mm
   26-09-2020    06:10      17.9º(-2.3)     48%      000 (N)      8.0 km/h    1020.6 hpa     26.2º    0.0 mm
   26-09-2020    06:05      17.9º(-2.3)     49%      000 (N)      8.0 km/h    1020.5 hpa     26.3º    0.0 mm
   26-09-2020    06:00      18.1º(-2.1)     49%      000 (N)      8.0 km/h    1020.5 hpa     26.3º    0.0 mm
   26-09-2020    05:55      18.1º(-2.1)     49%      022 (N)      6.4 km/h    1020.5 hpa     26.3º    0.0 mm
   26-09-2020    05:50      18.2º(-2.0)     49%      000 (N)      6.4 km/h    1020.6 hpa     26.3º    0.0 mm
   26-09-2020    05:45      18.2º(-2.1)     48%      000 (N)      6.4 km/h    1020.7 hpa     26.3º    0.0 mm
   26-09-2020    05:40      18.3º(-2.0)     48%      000 (N)      6.4 km/h    1020.8 hpa     26.3º    0.0 mm
   26-09-2020    05:35      18.4º(-2.0)     48%      022 (N)      6.4 km/h    1020.7 hpa     26.4º    0.0 mm
   26-09-2020    05:30      18.5º(-2.0)     48%      000 (N)      4.8 km/h    1020.8 hpa     26.3º    0.0 mm
   26-09-2020    05:25      18.6º(-2.0)     47%      022 (N)      4.8 km/h    1020.9 hpa     26.4º    0.0 mm
   26-09-2020    05:20      18.6º(-2.1)     47%      022 (N)      6.4 km/h    1020.8 hpa     26.4º    0.0 mm
   26-09-2020    05:15      18.5º(-2.2)     47%      000 (N)      6.4 km/h    1020.8 hpa     26.4º    0.0 mm
   26-09-2020    05:10      18.4º(-2.4)     48%      000 (N)      4.8 km/h    1020.6 hpa     26.4º    0.0 mm
   26-09-2020    05:05      18.4º(-2.5)     48%      000 (N)      6.4 km/h    1020.6 hpa     26.4º    0.0 mm
   26-09-2020    05:00      18.4º(-2.6)     48%      000 (N)      4.8 km/h    1020.6 hpa     26.4º    0.0 mm
   26-09-2020    04:55      18.6º(-2.5)     48%      000 (N)      4.8 km/h    1020.6 hpa     26.4º    0.0 mm
   26-09-2020    04:50      18.6º(-2.5)     48%      000 (N)      4.8 km/h    1020.9 hpa     26.4º    0.0 mm
   26-09-2020    04:45      18.7º(-2.5)     48%      000 (N)      4.8 km/h    1020.9 hpa     26.4º    0.0 mm
   26-09-2020    04:40      18.8º(-2.4)     48%      000 (N)      4.8 km/h    1021.0 hpa     26.4º    0.0 mm
   26-09-2020    04:35      18.8º(-2.6)     48%      022 (N)      6.4 km/h    1021.1 hpa     26.4º    0.0 mm
   26-09-2020    04:30      18.9º(-2.5)     47%      022 (N)      4.8 km/h    1021.1 hpa     26.4º    0.0 mm
   26-09-2020    04:25      19.0º(-2.6)     47%      000 (N)      6.4 km/h    1021.1 hpa     26.4º    0.0 mm
   26-09-2020    04:20      19.1º(-2.6)     47%      022 (N)      4.8 km/h    1021.1 hpa     26.4º    0.0 mm
   26-09-2020    04:15      19.1º(-2.7)     47%      000 (N)      3.2 km/h    1021.2 hpa     26.4º    0.0 mm
   26-09-2020    04:10      19.1º(-2.8)     48%      000 (N)      4.8 km/h    1021.2 hpa     26.4º    0.0 mm
   26-09-2020    04:05      19.1º(-2.9)     48%      000 (N)      4.8 km/h    1021.2 hpa     26.5º    0.0 mm
   26-09-2020    04:00      19.1º(-3.0)     49%      022 (N)      4.8 km/h    1021.3 hpa     26.5º    0.0 mm
   26-09-2020    03:55      19.1º(-3.1)     49%      022 (N)      4.8 km/h    1021.4 hpa     26.5º    0.0 mm
   26-09-2020    03:50      19.2º(-3.0)     49%      022 (N)      4.8 km/h    1021.4 hpa     26.5º    0.0 mm
   26-09-2020    03:45      19.2º(-3.1)     48%      022 (N)      4.8 km/h    1021.5 hpa     26.5º    0.0 mm
   26-09-2020    03:40      19.3º(-3.1)     48%      022 (N)      6.4 km/h    1021.5 hpa     26.5º    0.0 mm
   26-09-2020    03:35      19.4º(-3.0)     48%      022 (N)      3.2 km/h    1021.5 hpa     26.5º    0.0 mm
   26-09-2020    03:30      19.4º(-3.1)     47%      022 (N)      4.8 km/h    1021.5 hpa     26.5º    0.0 mm
   26-09-2020    03:25      19.6º(-3.0)     47%      022 (N)      6.4 km/h    1021.5 hpa     26.5º    0.0 mm
   26-09-2020    03:20      19.6º(-3.0)     46%      000 (N)      6.4 km/h    1021.4 hpa     26.5º    0.0 mm
   26-09-2020    03:15      19.7º(-3.0)     46%      022 (N)      6.4 km/h    1021.4 hpa     26.5º    0.0 mm
   26-09-2020    03:10      19.7º(-3.1)     46%      022 (N)      4.8 km/h    1021.5 hpa     26.5º    0.0 mm
   26-09-2020    03:05      19.8º(-3.0)     46%      000 (N)      4.8 km/h    1021.5 hpa     26.5º    0.0 mm
   26-09-2020    03:00      19.8º(-3.0)     46%      000 (N)      4.8 km/h    1021.4 hpa     26.5º    0.0 mm
   26-09-2020    02:55      19.8º(-3.1)     46%      000 (N)      4.8 km/h    1021.3 hpa     26.5º    0.0 mm
   26-09-2020    02:50      19.8º(-3.2)     46%      000 (N)      4.8 km/h    1021.5 hpa     26.5º    0.0 mm
   26-09-2020    02:45      19.9º(-3.1)     46%      022 (N)      4.8 km/h    1021.6 hpa     26.5º    0.0 mm
   26-09-2020    02:40      19.9º(-3.2)     46%      000 (N)      8.0 km/h    1021.6 hpa     26.5º    0.0 mm
   26-09-2020    02:35      19.9º(-3.2)     46%      000 (N)      6.4 km/h    1021.6 hpa     26.5º    0.0 mm
   26-09-2020    02:30      20.1º(-3.1)     46%      000 (N)      8.0 km/h    1021.7 hpa     26.6º    0.0 mm
   26-09-2020    02:25      20.1º(-3.1)     45%      022 (N)      8.0 km/h    1021.7 hpa     26.6º    0.0 mm
   26-09-2020    02:20      20.2º(-3.0)     45%      000 (N)      8.0 km/h    1021.7 hpa     26.6º    0.0 mm
   26-09-2020    02:15      20.2º(-3.0)     45%      000 (N)      8.0 km/h    1021.8 hpa     26.7º    0.0 mm
   26-09-2020    02:10      20.2º(-3.0)     45%      000 (N)      6.4 km/h    1021.8 hpa     26.7º    0.0 mm
   26-09-2020    02:05      20.2º(-3.0)     44%      000 (N)      6.4 km/h    1021.9 hpa     26.7º    0.0 mm
   26-09-2020    02:00      20.3º(-2.9)     44%      000 (N)      6.4 km/h    1021.9 hpa     26.7º    0.0 mm
   26-09-2020    01:55      20.4º(----)     43%      000 (N)      6.4 km/h    1022.0 hpa     26.7º    0.0 mm
   26-09-2020    01:50      20.5º(----)     43%      000 (N)      6.4 km/h    1022.0 hpa     26.8º    0.0 mm
   26-09-2020    01:45      20.6º(----)     43%      000 (N)      4.8 km/h    1022.0 hpa     26.8º    0.0 mm
   26-09-2020    01:40      20.6º(----)     43%      000 (N)      3.2 km/h    1022.1 hpa     26.8º    0.0 mm
   26-09-2020    01:35      20.6º(----)     43%      000 (N)      3.2 km/h    1022.1 hpa     26.8º    0.0 mm
   26-09-2020    01:30      20.6º(----)     43%      022 (N)      3.2 km/h    1022.1 hpa     26.8º    0.0 mm
   26-09-2020    01:25      20.6º(----)     43%      000 (N)      4.8 km/h    1022.0 hpa     26.9º    0.0 mm
   26-09-2020    01:20      20.6º(----)     42%      022 (N)      4.8 km/h    1022.0 hpa     26.9º    0.0 mm
   26-09-2020    01:15      20.7º(----)     42%      000 (N)      4.8 km/h    1022.0 hpa     26.9º    0.0 mm
   26-09-2020    01:10      20.8º(----)     42%      000 (N)      4.8 km/h    1022.1 hpa     26.9º    0.0 mm
   26-09-2020    01:05      21.1º(----)     41%      000 (N)      4.8 km/h    1022.1 hpa     26.9º    0.0 mm
   26-09-2020    01:00      21.3º(----)     41%      000 (N)      4.8 km/h    1022.1 hpa     26.9º    0.0 mm
   26-09-2020    00:55      21.6º(----)     40%      000 (N)      4.8 km/h    1022.2 hpa     26.9º    0.0 mm
   26-09-2020    00:50      21.7º(----)     39%      000 (N)      6.4 km/h    1022.2 hpa     26.8º    0.0 mm
   26-09-2020    00:45      21.7º(----)     38%      022 (N)      8.0 km/h    1022.2 hpa     26.8º    0.0 mm
   26-09-2020    00:40      21.8º(----)     38%      022 (N)      8.0 km/h    1022.1 hpa     26.8º    0.0 mm
   26-09-2020    00:35      21.8º(----)     38%      022 (N)      6.4 km/h    1022.1 hpa     26.8º    0.0 mm
   26-09-2020    00:30      21.8º(----)     38%      000 (N)      8.0 km/h    1022.1 hpa     26.8º    0.0 mm
   26-09-2020    00:25      21.8º(----)     38%      000 (N)      6.4 km/h    1022.1 hpa     26.8º    0.0 mm
   26-09-2020    00:20      21.9º(----)     38%      000 (N)      6.4 km/h    1022.2 hpa     26.8º    0.0 mm
   26-09-2020    00:15      21.9º(----)     38%      000 (N)      6.4 km/h    1022.2 hpa     26.8º    0.0 mm
   26-09-2020    00:10      21.9º(----)     38%      022 (N)      6.4 km/h    1022.2 hpa     26.8º    0.0 mm
   26-09-2020    00:05      21.9º(----)     38%      022 (N)      6.4 km/h    1022.3 hpa     26.8º    0.0 mm
   26-09-2020    00:00      22.0º(----)     38%      000 (N)      6.4 km/h    1022.2 hpa     26.7º    0.0 mm